Time,TemperatureF,DewpointF,PressureIn,WindDirection,WindDirectionDegrees,WindSpeedMPH,WindSpeedGustMPH,Humidity,HourlyPrecipIn,Conditions,Clouds,dailyrainin,SolarRadiationWatts/m^2,SoftwareType,DateUTC
2013-04-12 00:03:00,-3.1,-35.2,30.03,SSW,202,3.8,5.8,19,0.00,CLR,FEW,0.00,0.0,WeatherDisplay:10.37,2013-04-12 08:03:00,
2013-04-12 00:08:00,-2.6,-34.8,30.03,SSE,158,4.7,6.9,19,0.00,CLR,FEW,0.00,0.0,WeatherDisplay:10.37,2013-04-12 08:08:00,
2013-04-12 00:13:00,-2.2,-34.4,30.03,SSW,202,4.9,6.9,19,0.00,CLR,FEW,0.00,0.0,WeatherDisplay:10.37,2013-04-12 08:13:00,
2013-04-12 00:18:00,-1.8,-34.1,30.06,SSW,202,4.7,5.8,19,0.00,CLR,FEW,0.00,0.0,WeatherDisplay:10.37,2013-04-12 08:18:00,
2013-04-12 00:23:00,-1.7,-34.0,30.06,SSW,202,4.5,5.8,19,0.00,CLR,FEW,0.00,0.0,WeatherDisplay:10.37,2013-04-12 08:23:00,
2013-04-12 00:28:00,-1.7,-34.0,30.06,SSW,202,3.3,5.8,19,0.00,CLR,FEW,0.00,0.0,WeatherDisplay:10.37,2013-04-12 08:28:00,
2013-04-12 00:33:00,-1.7,-34.0,30.03,SSW,202,4.9,5.8,19,0.00,CLR,FEW,0.00,0.0,WeatherDisplay:10.37,2013-04-12 08:33:00,
2013-04-12 00:38:00,-1.8,-34.1,30.03,SSW,202,5.6,5.8,19,0.00,CLR,FEW,0.00,0.0,WeatherDisplay:10.37,2013-04-12 08:38:00,
2013-04-12 00:43:00,-2.0,-34.3,30.03,West,270,4.7,4.7,19,0.00,CLR,FEW,0.00,0.0,WeatherDisplay:10.37,2013-04-12 08:43:00,
2013-04-12 00:48:00,-2.2,-34.4,30.06,SW,225,4.0,5.8,19,0.00,CLR,FEW,0.00,0.0,WeatherDisplay:10.37,2013-04-12 08:48:00,
2013-04-12 00:53:00,-2.6,-34.8,30.06,SW,225,3.6,3.6,19,0.00,CLR,FEW,0.00,0.0,WeatherDisplay:10.37,2013-04-12 08:53:00,
2013-04-12 00:58:00,-2.7,-34.9,30.06,SSW,202,4.3,4.6,19,0.00,CLR,FEW,0.00,0.0,WeatherDisplay:10.37,2013-04-12 08:58:00,
2013-04-12 01:03:00,-3.1,-35.2,30.06,WSW,248,4.7,4.7,19,0.00,CLR,FEW,0.00,0.0,WeatherDisplay:10.37,2013-04-12 09:03:00,
2013-04-12 01:08:00,-3.1,-35.2,30.06,SSW,202,3.3,3.5,19,0.00,CLR,FEW,0.00,0.0,WeatherDisplay:10.37,2013-04-12 09:08:00,
2013-04-12 01:13:00,-3.1,-35.2,30.06,SSW,202,4.3,5.8,19,0.00,CLR,FEW,0.00,0.0,WeatherDisplay:10.37,2013-04-12 09:13:00,
2013-04-12 01:18:00,-3.3,-35.4,30.06,SSW,202,4.0,4.6,19,0.00,CLR,FEW,0.00,0.0,WeatherDisplay:10.37,2013-04-12 09:18:00,
2013-04-12 01:23:00,-3.5,-35.5,30.06,SSW,202,5.6,5.8,19,0.00,CLR,FEW,0.00,0.0,WeatherDisplay:10.37,2013-04-12 09:23:00,
2013-04-12 01:28:00,-3.5,-35.5,30.06,SSW,202,5.4,5.4,19,0.00,CLR,FEW,0.00,0.0,WeatherDisplay:10.37,2013-04-12 09:28:00,
2013-04-12 01:33:00,-3.6,-35.7,30.06,SSW,202,4.0,4.6,19,0.00,CLR,FEW,0.00,0.0,WeatherDisplay:10.37,2013-04-12 09:33:00,
2013-04-12 01:38:00,-3.8,-35.8,30.06,SSW,202,2.6,2.6,19,0.00,CLR,FEW,0.00,0.0,WeatherDisplay:10.37,2013-04-12 09:38:00,
2013-04-12 01:43:00,-4.4,-36.3,30.06,WSW,248,1.6,2.3,19,0.00,CLR,FEW,0.00,0.0,WeatherDisplay:10.37,2013-04-12 09:43:00,
2013-04-12 01:48:00,-4.9,-36.7,30.06,SW,225,1.6,2.3,19,0.00,CLR,FEW,0.00,0.0,WeatherDisplay:10.37,2013-04-12 09:48:00,
2013-04-12 01:53:00,-5.3,-37.0,30.06,South,180,2.4,2.4,19,0.00,CLR,FEW,0.00,0.0,WeatherDisplay:10.37,2013-04-12 09:53:00,
2013-04-12 01:58:00,-5.6,-37.3,30.06,WSW,248,3.6,3.6,19,0.00,CLR,FEW,0.00,0.0,WeatherDisplay:10.37,2013-04-12 09:58:00,
2013-04-12 02:03:00,-6.2,-37.8,30.06,WSW,248,2.9,3.5,19,0.00,CLR,FEW,0.00,0.0,WeatherDisplay:10.37,2013-04-12 10:03:00,
2013-04-12 02:08:00,-7.2,-38.7,30.06,SW,225,3.6,3.6,19,0.00,CLR,FEW,0.00,0.0,WeatherDisplay:10.37,2013-04-12 10:08:00,
2013-04-12 02:13:00,-8.0,-39.3,30.06,WSW,248,3.3,3.5,19,0.00,CLR,FEW,0.00,0.0,WeatherDisplay:10.37,2013-04-12 10:13:00,
2013-04-12 02:18:00,-9.2,-40.4,30.06,SW,225,2.6,3.5,19,0.00,CLR,FEW,0.00,0.0,WeatherDisplay:10.37,2013-04-12 10:18:00,
2013-04-12 02:23:00,-10.1,-41.2,30.06,WSW,248,3.8,4.6,19,0.00,CLR,FEW,0.00,0.0,WeatherDisplay:10.37,2013-04-12 10:23:00,
2013-04-12 02:28:00,-10.8,-41.8,30.06,SW,225,3.6,3.6,19,0.00,CLR,FEW,0.00,0.0,WeatherDisplay:10.37,2013-04-12 10:28:00,
2013-04-12 02:33:00,-11.2,-42.1,30.06,WSW,248,3.1,4.0,19,0.00,CLR,FEW,0.00,0.0,WeatherDisplay:10.37,2013-04-12 10:33:00,
2013-04-12 02:39:00,-12.1,-42.8,30.06,WSW,248,1.4,0.0,19,0.00,CLR,FEW,0.00,0.0,WeatherDisplay:10.37,2013-04-12 10:39:00,
2013-04-12 02:44:00,-13.5,-44.1,30.06,WSW,248,2.9,3.5,19,0.00,CLR,FEW,0.00,0.0,WeatherDisplay:10.37,2013-04-12 10:44:00,
2013-04-12 02:49:00,-14.3,-44.7,30.06,West,270,3.8,4.6,19,0.00,CLR,FEW,0.00,0.0,WeatherDisplay:10.37,2013-04-12 10:49:00,
2013-04-12 02:54:00,-15.2,-45.4,30.06,SSW,202,1.2,1.2,19,0.00,CLR,FEW,0.00,0.0,WeatherDisplay:10.37,2013-04-12 10:54:00,
2013-04-12 02:59:00,-15.9,-46.1,30.06,SW,225,0.0,0.0,19,0.00,CLR,FEW,0.00,0.0,WeatherDisplay:10.37,2013-04-12 10:59:00,
2013-04-12 03:04:00,-16.2,-46.4,30.06,SW,225,0.0,0.0,19,0.00,CLR,FEW,0.00,0.0,WeatherDisplay:10.37,2013-04-12 11:04:00,
2013-04-12 03:09:00,-17.1,-47.1,30.06,WSW,248,2.2,2.6,19,0.00,CLR,FEW,0.00,0.0,WeatherDisplay:10.37,2013-04-12 11:09:00,
2013-04-12 03:14:00,-17.7,-47.6,30.06,WSW,248,2.9,2.9,19,0.00,CLR,FEW,0.00,0.0,WeatherDisplay:10.37,2013-04-12 11:14:00,
2013-04-12 03:19:00,-18.2,-48.1,30.06,WSW,248,2.2,3.5,19,0.00,CLR,FEW,0.00,0.0,WeatherDisplay:10.37,2013-04-12 11:19:00,
2013-04-12 03:24:00,-18.8,-48.5,30.06,SW,225,1.6,2.3,19,0.00,CLR,FEW,0.00,0.0,WeatherDisplay:10.37,2013-04-12 11:24:00,
2013-04-12 03:29:00,-19.3,-49.0,30.06,WSW,248,1.4,1.4,19,0.00,CLR,FEW,0.00,0.0,WeatherDisplay:10.37,2013-04-12 11:29:00,
2013-04-12 03:34:00,-19.8,-49.4,30.06,NE,45,1.2,1.6,19,0.00,CLR,FEW,0.00,0.0,WeatherDisplay:10.37,2013-04-12 11:34:00,
2013-04-12 03:39:00,-20.4,-49.9,30.06,SSE,158,0.0,0.0,19,0.00,CLR,FEW,0.00,0.0,WeatherDisplay:10.37,2013-04-12 11:39:00,
2013-04-12 03:44:00,-20.6,-50.0,30.06,SSW,202,0.0,0.0,19,0.00,CLR,FEW,0.00,0.0,WeatherDisplay:10.37,2013-04-12 11:44:00,
2013-04-12 03:49:00,-20.7,-50.2,30.06,SSE,158,0.0,0.0,19,0.00,CLR,FEW,0.00,0.0,WeatherDisplay:10.37,2013-04-12 11:49:00,
2013-04-12 03:54:00,-20.9,-50.4,30.06,East,90,0.0,0.0,19,0.00,CLR,FEW,0.00,0.0,WeatherDisplay:10.37,2013-04-12 11:54:00,
2013-04-12 03:59:00,-21.5,-50.8,30.06,SSE,158,0.0,0.0,19,0.00,CLR,FEW,0.00,0.0,WeatherDisplay:10.37,2013-04-12 11:59:00,
2013-04-12 04:04:00,-21.6,-51.0,30.03,South,180,0.0,0.0,19,0.00,CLR,FEW,0.00,0.0,WeatherDisplay:10.37,2013-04-12 12:04:00,
2013-04-12 04:09:00,-21.8,-51.1,30.03,South,180,0.0,0.0,19,0.00,CLR,FEW,0.00,0.0,WeatherDisplay:10.37,2013-04-12 12:09:00,
2013-04-12 04:14:00,-22.0,-51.3,30.06,SSW,202,1.2,2.3,19,0.00,CLR,FEW,0.00,0.0,WeatherDisplay:10.37,2013-04-12 12:14:00,
2013-04-12 04:19:00,-22.2,-51.4,30.06,SSW,202,1.6,1.6,19,0.00,CLR,FEW,0.00,0.0,WeatherDisplay:10.37,2013-04-12 12:19:00,
2013-04-12 04:24:00,-22.7,-51.9,30.06,WSW,248,0.9,1.2,19,0.00,CLR,FEW,0.00,0.0,WeatherDisplay:10.37,2013-04-12 12:24:00,
2013-04-12 04:29:00,-22.9,-52.0,30.06,SSW,202,0.0,0.0,19,0.00,CLR,FEW,0.00,0.0,WeatherDisplay:10.37,2013-04-12 12:29:00,
2013-04-12 04:34:00,-22.9,-52.0,30.06,West,270,1.4,1.4,19,0.00,CLR,FEW,0.00,0.0,WeatherDisplay:10.37,2013-04-12 12:34:00,
2013-04-12 04:39:00,-23.1,-52.2,30.06,West,270,1.6,1.6,19,0.00,CLR,FEW,0.00,0.0,WeatherDisplay:10.37,2013-04-12 12:39:00,
2013-04-12 04:44:00,-23.4,-52.5,30.06,WSW,248,0.0,1.2,19,0.00,CLR,FEW,0.00,0.0,WeatherDisplay:10.37,2013-04-12 12:44:00,
2013-04-12 04:49:00,-23.6,-52.7,30.06,West,270,0.0,0.0,19,0.00,CLR,FEW,0.00,0.0,WeatherDisplay:10.37,2013-04-12 12:49:00,
2013-04-12 04:54:00,-23.8,-52.8,30.06,West,276,0.0,0.0,19,0.00,CLR,FEW,0.00,0.0,WeatherDisplay:10.37,2013-04-12 12:54:00,
2013-04-12 04:59:00,-24.0,-53.0,30.06,West,265,0.0,0.0,19,0.00,CLR,FEW,0.00,0.0,WeatherDisplay:10.37,2013-04-12 12:59:00,
2013-04-12 05:04:00,-24.2,-53.1,30.06,SW,236,0.0,0.0,19,0.00,CLR,FEW,0.00,0.0,WeatherDisplay:10.37,2013-04-12 13:04:00,
2013-04-12 05:09:00,-24.5,-53.4,30.06,SSW,202,0.9,1.2,19,0.00,CLR,FEW,0.00,0.0,WeatherDisplay:10.37,2013-04-12 13:09:00,
2013-04-12 05:14:00,-24.7,-53.6,30.06,WSW,248,1.6,2.3,19,0.00,CLR,FEW,0.00,0.0,WeatherDisplay:10.37,2013-04-12 13:14:00,
2013-04-12 05:19:00,-24.8,-53.7,30.06,SW,228,1.0,2.0,19,0.00,CLR,FEW,0.00,0.0,WeatherDisplay:10.37,2013-04-12 13:19:00,
2013-04-12 05:24:00,-25.1,-53.9,30.06,SSW,211,1.0,2.0,19,0.00,CLR,FEW,0.00,0.0,WeatherDisplay:10.37,2013-04-12 13:24:00,
2013-04-12 05:29:00,-25.1,-53.9,30.06,SSW,195,2.0,2.0,19,0.00,CLR,FEW,0.00,0.0,WeatherDisplay:10.37,2013-04-12 13:29:00,
2013-04-12 05:34:00,-25.1,-53.9,30.06,South,184,2.0,2.0,19,0.00,CLR,FEW,0.00,0.0,WeatherDisplay:10.37,2013-04-12 13:34:00,
2013-04-12 05:39:00,-25.2,-54.0,30.06,South,180,0.0,2.0,19,0.00,CLR,FEW,0.00,0.0,WeatherDisplay:10.37,2013-04-12 13:39:00,
2013-04-12 05:44:00,-25.6,-54.4,30.06,South,184,2.0,3.0,19,0.00,CLR,FEW,0.00,0.0,WeatherDisplay:10.37,2013-04-12 13:44:00,
2013-04-12 05:49:00,-25.6,-54.4,30.06,SSW,202,1.4,1.4,19,0.00,CLR,FEW,0.00,0.0,WeatherDisplay:10.37,2013-04-12 13:49:00,
2013-04-12 05:54:00,-25.6,-54.4,30.06,SW,225,0.0,1.2,19,0.00,CLR,FEW,0.00,0.0,WeatherDisplay:10.37,2013-04-12 13:54:00,
2013-04-12 05:59:00,-25.8,-54.5,30.06,SW,215,0.0,0.0,19,0.00,CLR,FEW,0.00,0.0,WeatherDisplay:10.37,2013-04-12 13:59:00,
2013-04-12 06:04:00,-25.8,-54.5,30.06,SW,225,0.0,0.0,19,0.00,CLR,FEW,0.00,0.0,WeatherDisplay:10.37,2013-04-12 14:04:00,
2013-04-12 06:09:00,-25.8,-54.5,30.06,WSW,248,0.0,0.0,19,0.00,CLR,FEW,0.00,0.0,WeatherDisplay:10.37,2013-04-12 14:09:00,
2013-04-12 06:14:00,-26.0,-54.7,30.06,SW,235,0.0,2.0,19,0.00,CLR,FEW,0.00,0.0,WeatherDisplay:10.37,2013-04-12 14:14:00,
2013-04-12 06:19:00,-26.1,-54.8,30.06,WSW,246,1.0,2.0,19,0.00,CLR,FEW,0.00,0.0,WeatherDisplay:10.37,2013-04-12 14:19:00,
2013-04-12 06:24:00,-26.1,-54.8,30.06,West,270,1.4,1.4,19,0.00,CLR,FEW,0.00,0.0,WeatherDisplay:10.37,2013-04-12 14:24:00,
2013-04-12 06:29:00,-26.1,-54.8,30.07,WSW,258,0.0,2.0,19,0.00,CLR,FEW,0.00,0.0,WeatherDisplay:10.37,2013-04-12 14:29:00,
2013-04-12 06:34:00,-26.1,-54.8,30.09,SW,225,0.0,0.0,19,0.00,CLR,FEW,0.00,0.0,WeatherDisplay:10.37,2013-04-12 14:34:00,
2013-04-12 06:39:00,-26.1,-54.8,30.09,SW,217,0.0,0.0,19,0.00,CLR,FEW,0.00,0.0,WeatherDisplay:10.37,2013-04-12 14:39:00,
2013-04-12 06:44:00,-26.1,-54.8,30.09,SW,214,0.0,0.0,19,0.00,CLR,FEW,0.00,0.0,WeatherDisplay:10.37,2013-04-12 14:44:00,
2013-04-12 06:49:00,-26.1,-54.8,30.09,WSW,248,0.0,0.0,19,0.00,CLR,FEW,0.00,0.0,WeatherDisplay:10.37,2013-04-12 14:49:00,
2013-04-12 06:54:00,-26.1,-54.8,30.09,West,269,1.0,2.0,19,0.00,CLR,FEW,0.00,0.0,WeatherDisplay:10.37,2013-04-12 14:54:00,
2013-04-12 06:59:00,-26.2,-54.9,30.09,WNW,291,1.0,2.0,19,0.00,CLR,FEW,0.00,0.0,WeatherDisplay:10.37,2013-04-12 14:59:00,
2013-04-12 07:04:00,-26.1,-54.8,30.09,SW,225,0.0,0.0,19,0.00,CLR,FEW,0.00,0.0,WeatherDisplay:10.37,2013-04-12 15:04:00,
2013-04-12 07:09:00,-26.1,-54.7,30.09,WSW,240,0.0,0.0,19,0.00,CLR,FEW,0.00,0.0,WeatherDisplay:10.37,2013-04-12 15:09:00,
2013-04-12 07:14:00,-26.0,-54.7,30.09,SSW,202,0.0,0.0,19,0.00,CLR,FEW,0.00,0.0,WeatherDisplay:10.37,2013-04-12 15:14:00,
2013-04-12 07:19:00,-25.6,-54.4,30.09,WSW,248,0.0,0.0,19,0.00,CLR,FEW,0.00,0.0,WeatherDisplay:10.37,2013-04-12 15:19:00,
2013-04-12 07:24:00,-25.1,-53.9,30.09,SW,231,1.0,2.0,19,0.00,CLR,FEW,0.00,0.0,WeatherDisplay:10.37,2013-04-12 15:24:00,
2013-04-12 07:29:00,-24.5,-53.4,30.09,SSW,202,0.0,0.0,19,0.00,CLR,FEW,0.00,0.0,WeatherDisplay:10.37,2013-04-12 15:29:00,
2013-04-12 07:34:00,-24.2,-53.1,30.09,SSE,158,0.0,2.2,19,0.00,CLR,FEW,0.00,0.0,WeatherDisplay:10.37,2013-04-12 15:34:00,
2013-04-12 07:39:00,-23.5,-52.6,30.09,South,184,0.0,2.0,19,0.00,CLR,FEW,0.00,0.0,WeatherDisplay:10.37,2013-04-12 15:39:00,
2013-04-12 07:44:00,-22.7,-51.9,30.12,South,180,0.9,1.4,19,0.00,CLR,FEW,0.00,0.0,WeatherDisplay:10.37,2013-04-12 15:44:00,
2013-04-12 07:49:00,-21.8,-51.1,30.12,South,180,1.0,2.0,19,0.00,CLR,FEW,0.00,0.0,WeatherDisplay:10.37,2013-04-12 15:49:00,
2013-04-12 07:54:00,-20.6,-50.0,30.12,SSW,202,1.2,1.2,19,0.00,CLR,FEW,0.00,0.0,WeatherDisplay:10.37,2013-04-12 15:54:00,
2013-04-12 07:59:00,-19.1,-48.8,30.12,SSW,202,1.4,1.4,19,0.00,CLR,FEW,0.00,0.0,WeatherDisplay:10.37,2013-04-12 15:59:00,
2013-04-12 08:04:00,-17.9,-47.8,30.12,SSW,208,1.0,2.0,19,0.00,CLR,FEW,0.00,0.0,WeatherDisplay:10.37,2013-04-12 16:04:00,
2013-04-12 08:09:00,-16.2,-46.4,30.12,SSW,202,2.0,2.3,19,0.00,CLR,FEW,0.00,0.0,WeatherDisplay:10.37,2013-04-12 16:09:00,
2013-04-12 08:14:00,-14.8,-45.1,30.09,South,180,0.9,1.2,19,0.00,CLR,FEW,0.00,0.0,WeatherDisplay:10.37,2013-04-12 16:14:00,
2013-04-12 08:19:00,-13.5,-44.0,30.09,South,188,2.0,3.0,19,0.00,CLR,FEW,0.00,0.0,WeatherDisplay:10.37,2013-04-12 16:19:00,
2013-04-12 08:24:00,-11.7,-42.5,30.09,South,180,1.6,2.3,19,0.00,CLR,FEW,0.00,0.0,WeatherDisplay:10.37,2013-04-12 16:24:00,
2013-04-12 08:29:00,-9.2,-40.4,30.09,South,180,2.0,2.3,19,0.00,CLR,FEW,0.00,0.0,WeatherDisplay:10.37,2013-04-12 16:29:00,
2013-04-12 08:34:00,-6.9,-38.4,30.09,South,170,2.0,3.0,19,0.00,CLR,FEW,0.00,0.0,WeatherDisplay:10.37,2013-04-12 16:34:00,
2013-04-12 08:39:00,-4.0,-36.0,30.09,SSE,158,3.3,3.5,19,0.00,CLR,FEW,0.00,0.0,WeatherDisplay:10.37,2013-04-12 16:39:00,
2013-04-12 08:44:00,-2.4,-34.7,30.09,SSE,168,3.0,6.0,19,0.00,CLR,FEW,0.00,0.0,WeatherDisplay:10.37,2013-04-12 16:44:00,
2013-04-12 08:49:00,-1.3,-33.7,30.09,SSW,202,4.3,5.8,19,0.00,CLR,FEW,0.00,0.0,WeatherDisplay:10.37,2013-04-12 16:49:00,
2013-04-12 08:54:00,-0.4,-32.9,30.09,SSE,158,2.9,3.5,19,0.00,CLR,FEW,0.00,0.0,WeatherDisplay:10.37,2013-04-12 16:54:00,
2013-04-12 08:59:00,0.3,-32.3,30.09,South,176,5.0,7.0,19,0.00,CLR,FEW,0.00,0.0,WeatherDisplay:10.37,2013-04-12 16:59:00,
2013-04-12 09:04:00,0.9,-31.9,30.09,SSE,158,4.3,4.6,19,0.00,CLR,FEW,0.00,0.0,WeatherDisplay:10.37,2013-04-12 17:04:00,
2013-04-12 09:09:00,1.2,-31.6,30.09,South,180,4.0,4.6,19,0.00,CLR,FEW,0.00,0.0,WeatherDisplay:10.37,2013-04-12 17:09:00,
2013-04-12 09:14:00,1.5,-31.3,30.09,SSE,163,2.0,5.0,19,0.00,CLR,FEW,0.00,0.0,WeatherDisplay:10.37,2013-04-12 17:14:00,
2013-04-12 09:19:00,1.9,-30.9,30.09,South,170,2.0,5.0,19,0.00,CLR,FEW,0.00,0.0,WeatherDisplay:10.37,2013-04-12 17:19:00,
2013-04-12 09:24:00,2.5,-30.5,30.09,SE,135,2.2,2.3,19,0.00,CLR,FEW,0.00,0.0,WeatherDisplay:10.37,2013-04-12 17:24:00,
2013-04-12 09:29:00,3.1,-30.0,30.09,SSE,156,3.0,5.0,19,0.00,CLR,FEW,0.00,0.0,WeatherDisplay:10.37,2013-04-12 17:29:00,
2013-04-12 09:34:00,3.9,-29.3,30.09,SE,136,2.0,4.0,19,0.00,CLR,FEW,0.00,0.0,WeatherDisplay:10.37,2013-04-12 17:34:00,
2013-04-12 09:39:00,4.7,-28.6,30.09,ESE,123,3.0,4.0,19,0.00,CLR,FEW,0.00,100.0,WeatherDisplay:10.37,2013-04-12 17:39:00,
2013-04-12 09:44:00,4.9,-28.4,30.09,ESE,121,3.0,4.0,19,0.00,CLR,FEW,0.00,100.0,WeatherDisplay:10.37,2013-04-12 17:44:00,
2013-04-12 09:49:00,5.2,-28.2,30.09,ESE,115,3.0,5.0,19,0.00,CLR,FEW,0.00,100.0,WeatherDisplay:10.37,2013-04-12 17:49:00,
2013-04-12 09:55:00,6.3,-27.3,30.09,South,180,2.9,3.5,19,0.00,CLR,FEW,0.00,100.0,WeatherDisplay:10.37,2013-04-12 17:55:00,
2013-04-12 10:00:00,7.0,-26.7,30.09,SSE,158,4.0,4.6,19,0.00,CLR,FEW,0.00,100.0,WeatherDisplay:10.37,2013-04-12 18:00:00,
2013-04-12 10:05:00,7.5,-26.2,30.09,ESE,112,3.3,4.6,19,0.00,CLR,FEW,0.00,100.0,WeatherDisplay:10.37,2013-04-12 18:05:00,
2013-04-12 10:12:00,7.9,-25.9,30.09,ESE,112,3.1,3.5,19,0.00,CLR,FEW,0.00,100.0,WeatherDisplay:10.37,2013-04-12 18:12:00,
2013-04-12 10:19:00,9.0,-25.0,30.09,ESE,112,2.0,2.3,19,0.00,CLR,FEW,0.00,100.0,WeatherDisplay:10.37,2013-04-12 18:19:00,
2013-04-12 10:24:00,9.3,-24.7,30.09,SE,131,2.0,3.0,19,0.00,CLR,FEW,0.00,100.0,WeatherDisplay:10.37,2013-04-12 18:24:00,
2013-04-12 10:29:00,10.1,-24.0,30.09,ESE,119,2.0,3.0,19,0.00,CLR,FEW,0.00,100.0,WeatherDisplay:10.37,2013-04-12 18:29:00,
2013-04-12 11:26:00,18.0,-4.0,30.09,East,90,1.2,4.6,37,0.00,CLR,FEW,0.00,100.0,WeatherDisplay:10.37,2013-04-12 19:26:00,
2013-04-12 11:31:00,17.6,-3.7,30.06,South,180,2.0,2.3,38,0.00,CLR,FEW,0.00,100.0,WeatherDisplay:10.37,2013-04-12 19:31:00,
2013-04-12 11:37:00,18.7,-2.2,30.06,NE,45,4.0,5.8,39,0.00,CLR,FEW,0.00,100.0,WeatherDisplay:10.37,2013-04-12 19:37:00,
2013-04-12 11:42:00,17.4,-3.4,30.06,ENE,68,2.4,3.5,39,0.00,CLR,FEW,0.00,100.0,WeatherDisplay:10.37,2013-04-12 19:42:00,
2013-04-12 11:47:00,17.6,-3.2,30.06,North,0,4.0,4.6,39,0.00,CLR,FEW,0.00,100.0,WeatherDisplay:10.37,2013-04-12 19:47:00,
2013-04-12 11:52:00,19.0,-1.4,30.06,NNE,22,3.8,3.8,40,0.00,CLR,FEW,0.00,100.0,WeatherDisplay:10.37,2013-04-12 19:52:00,
2013-04-12 11:57:00,19.6,-1.4,30.06,ENE,68,4.3,5.8,39,0.00,CLR,FEW,0.00,100.0,WeatherDisplay:10.37,2013-04-12 19:57:00,
2013-04-12 12:02:00,20.1,-1.5,30.06,NNW,338,4.0,5.8,38,0.00,CLR,FEW,0.00,100.0,WeatherDisplay:10.37,2013-04-12 20:02:00,
2013-04-12 12:07:00,20.5,-1.7,30.06,WNW,292,3.1,4.6,37,0.00,CLR,FEW,0.00,300.0,WeatherDisplay:10.37,2013-04-12 20:07:00,
2013-04-12 12:12:00,20.5,-1.7,30.06,North,0,5.9,6.9,37,0.00,CLR,FEW,0.00,200.0,WeatherDisplay:10.37,2013-04-12 20:12:00,
2013-04-12 12:17:00,21.2,-1.1,30.06,NNE,22,6.0,6.9,37,0.00,CLR,FEW,0.00,200.0,WeatherDisplay:10.37,2013-04-12 20:17:00,
2013-04-12 12:22:00,21.7,-1.2,30.06,NW,315,7.1,9.2,36,0.00,CLR,FEW,0.00,200.0,WeatherDisplay:10.37,2013-04-12 20:22:00,
2013-04-12 12:27:00,22.3,-0.7,30.06,NNW,338,5.9,8.1,36,0.00,CLR,FEW,0.00,200.0,WeatherDisplay:10.37,2013-04-12 20:27:00,
2013-04-12 12:32:00,21.2,-2.2,30.06,NNW,338,3.3,4.6,35,0.00,CLR,FEW,0.00,200.0,WeatherDisplay:10.37,2013-04-12 20:32:00,
2013-04-12 12:37:00,22.5,-0.5,30.06,NW,315,3.6,5.8,36,0.00,CLR,FEW,0.00,300.0,WeatherDisplay:10.37,2013-04-12 20:37:00,
2013-04-12 12:42:00,22.1,-2.0,30.06,North,0,4.5,11.8,34,0.00,CLR,FEW,0.00,200.0,WeatherDisplay:10.37,2013-04-12 20:42:00,
2013-04-12 12:47:00,22.5,-0.5,30.06,ENE,68,7.4,8.1,36,0.00,CLR,FEW,0.00,200.0,WeatherDisplay:10.37,2013-04-12 20:47:00,
2013-04-12 12:52:00,21.7,-1.8,30.06,NNE,22,5.6,8.1,35,0.00,CLR,FEW,0.00,200.0,WeatherDisplay:10.37,2013-04-12 20:52:00,
2013-04-12 12:57:00,22.1,-0.8,30.06,NNW,338,5.9,5.9,36,0.00,CLR,FEW,0.00,200.0,WeatherDisplay:10.37,2013-04-12 20:57:00,
2013-04-12 13:02:00,22.3,-0.7,30.06,NNE,22,6.7,6.9,36,0.00,CLR,FEW,0.00,200.0,WeatherDisplay:10.37,2013-04-12 21:02:00,
2013-04-12 13:07:00,20.5,-2.9,30.06,NNE,22,8.1,8.1,35,0.00,CLR,FEW,0.00,200.0,WeatherDisplay:10.37,2013-04-12 21:07:00,
2013-04-12 13:12:00,20.1,-3.2,30.06,ENE,68,4.5,10.4,35,0.00,CLR,FEW,0.00,300.0,WeatherDisplay:10.37,2013-04-12 21:12:00,
2013-04-12 13:18:00,20.3,-3.7,30.06,East,90,2.9,5.8,34,0.00,CLR,FEW,0.00,300.0,WeatherDisplay:10.37,2013-04-12 21:18:00,
2013-04-12 13:22:00,20.8,-2.6,30.06,ENE,68,8.1,9.2,35,0.00,CLR,FEW,0.00,300.0,WeatherDisplay:10.37,2013-04-12 21:22:00,
2013-04-12 13:28:00,22.1,-1.4,30.06,ENE,68,1.4,3.5,35,0.00,CLR,FEW,0.00,300.0,WeatherDisplay:10.37,2013-04-12 21:28:00,
2013-04-12 13:33:00,21.6,-2.5,30.06,NNE,22,4.7,4.7,34,0.00,CLR,FEW,0.00,200.0,WeatherDisplay:10.37,2013-04-12 21:33:00,
2013-04-12 13:38:00,22.8,-0.2,30.06,NNE,22,5.9,9.2,36,0.00,CLR,FEW,0.00,200.0,WeatherDisplay:10.37,2013-04-12 21:38:00,
2013-04-12 13:43:00,23.4,-0.3,30.06,NE,45,5.9,10.4,35,0.00,CLR,FEW,0.00,300.0,WeatherDisplay:10.37,2013-04-12 21:43:00,
2013-04-12 13:48:00,22.1,-2.0,30.06,ENE,68,7.6,10.4,34,0.00,CLR,FEW,0.00,200.0,WeatherDisplay:10.37,2013-04-12 21:48:00,
2013-04-12 13:53:00,21.4,-2.1,30.06,NNE,22,7.1,8.1,35,0.00,CLR,FEW,0.00,100.0,WeatherDisplay:10.37,2013-04-12 21:53:00,
2013-04-12 13:58:00,20.8,-3.2,30.06,North,0,4.3,5.8,34,0.00,CLR,FEW,0.00,200.0,WeatherDisplay:10.37,2013-04-12 21:58:00,
2013-04-12 14:03:00,20.8,-3.2,30.06,North,0,4.5,5.8,34,0.00,CLR,FEW,0.00,100.0,WeatherDisplay:10.37,2013-04-12 22:03:00,
2013-04-12 14:08:00,20.8,-2.6,30.06,NNE,22,7.6,9.2,35,0.00,CLR,FEW,0.00,100.0,WeatherDisplay:10.37,2013-04-12 22:08:00,
2013-04-12 14:13:00,20.3,-3.7,30.06,SE,135,2.0,2.3,34,0.00,CLR,FEW,0.00,200.0,WeatherDisplay:10.37,2013-04-12 22:13:00,
2013-04-12 14:18:00,20.7,-3.3,30.06,SE,135,6.2,8.1,34,0.00,CLR,FEW,0.00,200.0,WeatherDisplay:10.37,2013-04-12 22:18:00,
2013-04-12 14:23:00,20.7,-3.3,30.06,SW,225,1.6,2.3,34,0.00,CLR,FEW,0.00,200.0,WeatherDisplay:10.37,2013-04-12 22:23:00,
2013-04-12 14:28:00,21.4,-2.1,30.06,NE,45,9.2,10.4,35,0.00,CLR,FEW,0.00,200.0,WeatherDisplay:10.37,2013-04-12 22:28:00,
2013-04-12 14:33:00,21.9,-1.6,30.06,ENE,68,3.1,3.1,35,0.00,CLR,FEW,0.00,100.0,WeatherDisplay:10.37,2013-04-12 22:33:00,
2013-04-12 14:38:00,21.6,-1.3,30.06,NE,45,4.3,5.8,36,0.00,CLR,FEW,0.00,100.0,WeatherDisplay:10.37,2013-04-12 22:38:00,
2013-04-12 14:43:00,21.9,-1.6,30.06,North,0,5.6,9.2,35,0.00,CLR,FEW,0.00,200.0,WeatherDisplay:10.37,2013-04-12 22:43:00,
2013-04-12 14:48:00,22.8,-0.8,30.06,NNW,338,1.6,2.3,35,0.00,CLR,FEW,0.00,100.0,WeatherDisplay:10.37,2013-04-12 22:48:00,
2013-04-12 14:53:00,23.7,0.0,30.06,ENE,68,6.2,12.5,35,0.00,CLR,FEW,0.00,200.0,WeatherDisplay:10.37,2013-04-12 22:53:00,
2013-04-12 14:58:00,23.4,-0.3,30.06,NNE,22,5.4,8.1,35,0.00,CLR,FEW,0.00,100.0,WeatherDisplay:10.37,2013-04-12 22:58:00,
2013-04-12 15:03:00,21.6,-3.2,30.06,ENE,68,6.4,8.1,33,0.00,CLR,FEW,0.00,100.0,WeatherDisplay:10.37,2013-04-12 23:03:00,
2013-04-12 15:08:00,20.3,-3.7,30.06,NW,315,4.9,6.9,34,0.00,CLR,FEW,0.00,0.0,WeatherDisplay:10.37,2013-04-12 23:08:00,
2013-04-12 15:13:00,20.7,-3.3,30.06,NE,45,6.2,6.9,34,0.00,CLR,FEW,0.00,100.0,WeatherDisplay:10.37,2013-04-12 23:13:00,
2013-04-12 15:18:00,20.3,-3.7,30.06,NE,45,9.8,11.5,34,0.00,CLR,FEW,0.00,100.0,WeatherDisplay:10.37,2013-04-12 23:18:00,
2013-04-12 15:23:00,20.1,-3.8,30.06,NNE,22,4.7,8.1,34,0.00,CLR,FEW,0.00,100.0,WeatherDisplay:10.37,2013-04-12 23:23:00,
2013-04-12 15:28:00,19.8,-4.1,30.06,ENE,68,6.2,8.1,34,0.00,CLR,FEW,0.00,100.0,WeatherDisplay:10.37,2013-04-12 23:28:00,
2013-04-12 15:33:00,20.3,-3.0,30.06,East,90,2.4,3.5,35,0.00,CLR,FEW,0.00,0.0,WeatherDisplay:10.37,2013-04-12 23:33:00,
2013-04-12 15:38:00,20.3,-3.0,30.06,ENE,68,6.0,6.0,35,0.00,CLR,FEW,0.00,0.0,WeatherDisplay:10.37,2013-04-12 23:38:00,
2013-04-12 15:43:00,20.3,-3.0,30.06,ENE,68,1.4,3.5,35,0.00,CLR,FEW,0.00,0.0,WeatherDisplay:10.37,2013-04-12 23:43:00,
2013-04-12 15:48:00,20.3,-3.0,30.03,NE,45,2.9,5.8,35,0.00,CLR,FEW,0.00,100.0,WeatherDisplay:10.37,2013-04-12 23:48:00,
2013-04-12 15:53:00,21.0,-2.4,30.03,NNW,338,5.4,6.9,35,0.00,CLR,FEW,0.00,100.0,WeatherDisplay:10.37,2013-04-12 23:53:00,
2013-04-12 15:58:00,21.2,-2.2,30.03,ENE,68,7.8,9.2,35,0.00,CLR,FEW,0.00,100.0,WeatherDisplay:10.37,2013-04-12 23:58:00,
2013-04-12 16:03:00,21.6,-1.9,30.06,North,0,5.6,5.8,35,0.00,CLR,FEW,0.00,100.0,WeatherDisplay:10.37,2013-04-13 00:03:00,
2013-04-12 16:08:00,21.6,-2.5,30.06,NE,45,6.4,8.1,34,0.00,CLR,FEW,0.00,0.0,WeatherDisplay:10.37,2013-04-13 00:08:00,
2013-04-12 16:13:00,21.6,-1.9,30.06,WNW,292,3.1,4.6,35,0.00,CLR,FEW,0.00,0.0,WeatherDisplay:10.37,2013-04-13 00:13:00,
2013-04-12 16:18:00,21.9,-2.2,30.06,ENE,68,7.1,8.1,34,0.00,CLR,FEW,0.00,100.0,WeatherDisplay:10.37,2013-04-13 00:18:00,
2013-04-12 16:23:00,21.7,-1.8,30.06,NNE,22,9.8,10.4,35,0.00,CLR,FEW,0.00,100.0,WeatherDisplay:10.37,2013-04-13 00:23:00,
2013-04-12 16:28:00,21.6,-3.2,30.06,NNE,22,2.2,8.1,33,0.00,CLR,FEW,0.00,0.0,WeatherDisplay:10.37,2013-04-13 00:28:00,
2013-04-12 16:33:00,21.0,-3.0,30.06,ENE,68,7.1,7.1,34,0.00,CLR,FEW,0.00,100.0,WeatherDisplay:10.37,2013-04-13 00:33:00,
2013-04-12 16:38:00,20.7,-2.7,30.06,NE,45,7.6,12.7,35,0.00,CLR,FEW,0.00,0.0,WeatherDisplay:10.37,2013-04-13 00:38:00,
2013-04-12 16:43:00,19.9,-4.0,30.06,NE,45,4.0,6.9,34,0.00,CLR,FEW,0.00,0.0,WeatherDisplay:10.37,2013-04-13 00:43:00,
2013-04-12 16:48:00,19.4,-3.8,30.06,NNE,22,4.5,9.2,35,0.00,CLR,FEW,0.00,0.0,WeatherDisplay:10.37,2013-04-13 00:48:00,
2013-04-12 16:53:00,19.9,-3.4,30.06,NE,45,6.4,8.1,35,0.00,CLR,FEW,0.00,0.0,WeatherDisplay:10.37,2013-04-13 00:53:00,
2013-04-12 16:58:00,21.0,-1.8,30.06,NNE,22,6.0,8.1,36,0.00,CLR,FEW,0.00,0.0,WeatherDisplay:10.37,2013-04-13 00:58:00,
2013-04-12 17:03:00,21.0,-3.0,30.06,ENE,68,7.6,9.2,34,0.00,CLR,FEW,0.00,0.0,WeatherDisplay:10.37,2013-04-13 01:03:00,
2013-04-12 17:08:00,19.9,-4.0,30.06,East,90,4.0,4.6,34,0.00,CLR,FEW,0.00,0.0,WeatherDisplay:10.37,2013-04-13 01:08:00,
2013-04-12 17:13:00,19.9,-3.4,30.06,NNE,22,6.0,6.9,35,0.00,CLR,FEW,0.00,0.0,WeatherDisplay:10.37,2013-04-13 01:13:00,
2013-04-12 17:18:00,19.4,-3.8,30.06,NNW,338,6.4,8.1,35,0.00,CLR,FEW,0.00,0.0,WeatherDisplay:10.37,2013-04-13 01:18:00,
2013-04-12 17:23:00,19.4,-3.3,30.06,NNW,338,4.9,5.8,36,0.00,CLR,FEW,0.00,0.0,WeatherDisplay:10.37,2013-04-13 01:23:00,
2013-04-12 17:28:00,19.2,-4.0,30.06,ENE,68,4.7,5.8,35,0.00,CLR,FEW,0.00,0.0,WeatherDisplay:10.37,2013-04-13 01:28:00,
2013-04-12 17:33:00,18.7,-4.5,30.09,ENE,68,4.0,4.0,35,0.00,CLR,FEW,0.00,0.0,WeatherDisplay:10.37,2013-04-13 01:33:00,
2013-04-12 17:39:00,18.3,-4.8,30.09,ENE,68,3.6,5.4,35,0.00,CLR,FEW,0.00,0.0,WeatherDisplay:10.37,2013-04-13 01:39:00,
2013-04-12 17:44:00,18.1,-5.0,30.08,ENE,67,6.0,10.0,35,0.00,CLR,FEW,0.00,0.0,WeatherDisplay:10.37,2013-04-13 01:44:00,
2013-04-12 17:49:00,18.7,-4.5,30.06,ENE,64,7.0,8.0,35,0.00,CLR,FEW,0.00,0.0,WeatherDisplay:10.37,2013-04-13 01:49:00,
2013-04-12 17:54:00,19.4,-3.8,30.06,ENE,57,6.0,9.0,35,0.00,CLR,FEW,0.00,0.0,WeatherDisplay:10.37,2013-04-13 01:54:00,
2013-04-12 17:59:00,19.4,-3.8,30.07,NE,46,7.0,9.0,35,0.00,CLR,FEW,0.00,0.0,WeatherDisplay:10.37,2013-04-13 01:59:00,
2013-04-12 18:04:00,20.2,-3.1,30.09,North,359,7.0,7.0,35,0.00,CLR,FEW,0.00,0.0,WeatherDisplay:10.37,2013-04-13 02:04:00,
2013-04-12 18:09:00,20.1,-3.8,30.09,NNW,338,7.0,7.0,34,0.00,CLR,FEW,0.00,0.0,WeatherDisplay:10.37,2013-04-13 02:09:00,
2013-04-12 18:14:00,20.3,-3.0,30.06,NNE,22,5.9,5.9,35,0.00,CLR,FEW,0.00,0.0,WeatherDisplay:10.37,2013-04-13 02:14:00,
2013-04-12 18:19:00,20.3,-3.7,30.06,NE,45,6.9,7.4,34,0.00,CLR,FEW,0.00,0.0,WeatherDisplay:10.37,2013-04-13 02:19:00,
2013-04-12 18:24:00,20.3,-3.7,30.06,ENE,68,5.6,6.9,34,0.00,CLR,FEW,0.00,0.0,WeatherDisplay:10.37,2013-04-13 02:24:00,
2013-04-12 18:29:00,20.3,-3.0,30.07,ENE,63,6.0,6.0,35,0.00,CLR,FEW,0.00,0.0,WeatherDisplay:10.37,2013-04-13 02:29:00,
2013-04-12 18:34:00,20.2,-3.7,30.09,NNE,33,7.0,7.0,34,0.00,CLR,FEW,0.00,0.0,WeatherDisplay:10.37,2013-04-13 02:34:00,
2013-04-12 18:39:00,20.5,-3.5,30.09,North,0,2.6,5.8,34,0.00,CLR,FEW,0.00,0.0,WeatherDisplay:10.37,2013-04-13 02:39:00,
2013-04-12 18:44:00,20.2,-3.7,30.09,NE,38,5.0,8.0,34,0.00,CLR,FEW,0.00,0.0,WeatherDisplay:10.37,2013-04-13 02:44:00,
2013-04-12 18:49:00,19.8,-4.1,30.09,NE,55,6.0,8.0,34,0.00,CLR,FEW,0.00,0.0,WeatherDisplay:10.37,2013-04-13 02:49:00,
2013-04-12 18:54:00,19.4,-4.5,30.09,ENE,68,4.7,8.7,34,0.00,CLR,FEW,0.00,0.0,WeatherDisplay:10.37,2013-04-13 02:54:00,
2013-04-12 18:59:00,19.0,-4.2,30.09,North,0,4.7,4.7,35,0.00,CLR,FEW,0.00,0.0,WeatherDisplay:10.37,2013-04-13 02:59:00,
2013-04-12 19:04:00,18.2,-4.9,30.09,NE,46,6.0,8.0,35,0.00,CLR,FEW,0.00,0.0,WeatherDisplay:10.37,2013-04-13 03:04:00,
2013-04-12 19:09:00,18.0,-5.1,30.09,ENE,68,6.4,6.4,35,0.00,CLR,FEW,0.00,0.0,WeatherDisplay:10.37,2013-04-13 03:09:00,
2013-04-12 19:14:00,17.6,-5.5,30.09,ENE,63,6.0,6.0,35,0.00,CLR,FEW,0.00,0.0,WeatherDisplay:10.37,2013-04-13 03:14:00,
2013-04-12 19:19:00,17.1,-5.4,30.09,ENE,68,5.9,5.9,36,0.00,CLR,FEW,0.00,0.0,WeatherDisplay:10.37,2013-04-13 03:19:00,
2013-04-12 19:24:00,16.9,-5.5,30.09,ENE,68,6.7,6.7,36,0.00,CLR,FEW,0.00,0.0,WeatherDisplay:10.37,2013-04-13 03:24:00,
2013-04-12 19:29:00,16.7,-5.7,30.09,ENE,72,6.0,9.0,36,0.00,CLR,FEW,0.00,0.0,WeatherDisplay:10.37,2013-04-13 03:29:00,
2013-04-12 19:34:00,16.7,-5.7,30.09,ENE,68,4.7,6.9,36,0.00,CLR,FEW,0.00,0.0,WeatherDisplay:10.37,2013-04-13 03:34:00,
2013-04-12 19:39:00,16.5,-5.3,30.09,NE,50,7.0,8.0,37,0.00,CLR,FEW,0.00,0.0,WeatherDisplay:10.37,2013-04-13 03:39:00,
2013-04-12 19:44:00,16.3,-5.4,30.10,NE,34,8.0,8.0,37,0.00,CLR,FEW,0.00,0.0,WeatherDisplay:10.37,2013-04-13 03:44:00,
2013-04-12 19:49:00,16.2,-5.6,30.12,East,90,6.2,8.1,37,0.00,CLR,FEW,0.00,0.0,WeatherDisplay:10.37,2013-04-13 03:49:00,
2013-04-12 19:54:00,16.0,-5.2,30.12,ENE,73,6.0,7.0,38,0.00,CLR,FEW,0.00,0.0,WeatherDisplay:10.37,2013-04-13 03:54:00,
2013-04-12 19:59:00,15.8,-5.4,30.12,ENE,68,7.0,7.0,38,0.00,CLR,FEW,0.00,0.0,WeatherDisplay:10.37,2013-04-13 03:59:00,
2013-04-12 20:00:00,15.8,-5.4,30.12,ENE,68,4.7,6.9,38,0.00,CLR,FEW,0.00,0.0,WeatherDisplay:10.37,2013-04-13 04:00:00,
2013-04-12 20:05:00,15.6,-5.5,30.12,ENE,68,5.4,5.8,38,0.00,CLR,FEW,0.00,0.0,WeatherDisplay:10.37,2013-04-13 04:05:00,
2013-04-12 20:10:00,15.3,-5.9,30.12,ENE,68,3.3,3.5,38,0.00,CLR,FEW,0.00,0.0,WeatherDisplay:10.37,2013-04-13 04:10:00,
2013-04-12 20:15:00,15.1,-5.5,30.12,ENE,68,4.5,6.2,39,0.00,CLR,FEW,0.00,0.0,WeatherDisplay:10.37,2013-04-13 04:15:00,
2013-04-12 20:20:00,15.1,-5.5,30.12,NE,45,5.9,5.9,39,0.00,CLR,FEW,0.00,0.0,WeatherDisplay:10.37,2013-04-13 04:20:00,
2013-04-12 20:25:00,14.9,-5.6,30.12,ENE,68,4.5,4.5,39,0.00,CLR,FEW,0.00,0.0,WeatherDisplay:10.37,2013-04-13 04:25:00,
2013-04-12 20:30:00,14.5,-6.0,30.12,ENE,68,4.7,4.7,39,0.00,CLR,FEW,0.00,0.0,WeatherDisplay:10.37,2013-04-13 04:30:00,
2013-04-12 20:35:00,14.4,-6.1,30.12,ENE,68,3.8,5.8,39,0.00,CLR,FEW,0.00,0.0,WeatherDisplay:10.37,2013-04-13 04:35:00,
2013-04-12 20:40:00,14.0,-5.9,30.12,ENE,68,3.8,4.6,40,0.00,CLR,FEW,0.00,0.0,WeatherDisplay:10.37,2013-04-13 04:40:00,
2013-04-12 20:45:00,13.5,-6.4,30.12,NNE,22,2.2,2.3,40,0.00,CLR,FEW,0.00,0.0,WeatherDisplay:10.37,2013-04-13 04:45:00,
2013-04-12 20:50:00,12.6,-7.2,30.12,NNE,22,3.1,4.6,40,0.00,CLR,FEW,0.00,0.0,WeatherDisplay:10.37,2013-04-13 04:50:00,
2013-04-12 20:55:00,12.0,-7.7,30.12,ENE,68,2.4,2.4,40,0.00,CLR,FEW,0.00,0.0,WeatherDisplay:10.37,2013-04-13 04:55:00,
2013-04-12 21:00:00,10.8,-8.9,30.09,NNE,22,1.6,1.6,40,0.00,CLR,FEW,0.00,0.0,WeatherDisplay:10.37,2013-04-13 05:00:00,
2013-04-12 21:05:00,10.0,-9.5,30.09,NNE,22,2.0,2.3,40,0.00,CLR,FEW,0.00,0.0,WeatherDisplay:10.37,2013-04-13 05:05:00,
2013-04-12 21:10:00,9.1,-10.3,30.09,NE,45,1.2,2.3,40,0.00,CLR,FEW,0.00,0.0,WeatherDisplay:10.37,2013-04-13 05:10:00,
2013-04-12 21:15:00,7.9,-11.5,30.12,NNE,22,0.0,1.2,40,0.00,CLR,FEW,0.00,0.0,WeatherDisplay:10.37,2013-04-13 05:15:00,
2013-04-12 21:21:00,6.8,-12.5,30.12,North,0,0.0,1.2,40,0.00,CLR,FEW,0.00,0.0,WeatherDisplay:10.37,2013-04-13 05:21:00,
2013-04-12 21:26:00,5.7,-13.4,30.12,North,0,0.0,1.2,40,0.00,CLR,FEW,0.00,0.0,WeatherDisplay:10.37,2013-04-13 05:26:00,
2013-04-12 21:31:00,4.5,-14.6,30.09,NNW,338,0.0,1.2,40,0.00,CLR,FEW,0.00,0.0,WeatherDisplay:10.37,2013-04-13 05:31:00,
2013-04-12 21:36:00,3.4,-15.6,30.09,NW,315,0.0,0.0,40,0.00,CLR,FEW,0.00,0.0,WeatherDisplay:10.37,2013-04-13 05:36:00,
2013-04-12 21:41:00,2.5,-16.4,30.09,WNW,292,2.4,2.4,40,0.00,CLR,FEW,0.00,0.0,WeatherDisplay:10.37,2013-04-13 05:41:00,
2013-04-12 21:46:00,1.8,-17.1,30.12,NW,315,2.9,3.5,40,0.00,CLR,FEW,0.00,0.0,WeatherDisplay:10.37,2013-04-13 05:46:00,
2013-04-12 21:51:00,0.5,-18.2,30.12,WNW,292,3.1,3.5,40,0.00,CLR,FEW,0.00,0.0,WeatherDisplay:10.37,2013-04-13 05:51:00,
2013-04-12 21:56:00,-0.6,-19.2,30.12,WNW,292,3.1,3.5,40,0.00,CLR,FEW,0.00,0.0,WeatherDisplay:10.37,2013-04-13 05:56:00,
2013-04-12 22:01:00,-1.3,-19.8,30.12,NW,315,3.1,3.5,40,0.00,CLR,FEW,0.00,0.0,WeatherDisplay:10.37,2013-04-13 06:01:00,
2013-04-12 22:06:00,-1.8,-20.3,30.12,WNW,292,2.9,2.9,40,0.00,CLR,FEW,0.00,0.0,WeatherDisplay:10.37,2013-04-13 06:06:00,
2013-04-12 22:11:00,-2.6,-21.0,30.12,WNW,292,2.6,2.6,40,0.00,CLR,FEW,0.00,0.0,WeatherDisplay:10.37,2013-04-13 06:11:00,
2013-04-12 22:16:00,-3.3,-21.6,30.12,WNW,292,2.6,3.5,40,0.00,CLR,FEW,0.00,0.0,WeatherDisplay:10.37,2013-04-13 06:16:00,
2013-04-12 22:21:00,-4.4,-22.6,30.12,South,180,0.0,2.3,40,0.00,CLR,FEW,0.00,0.0,WeatherDisplay:10.37,2013-04-13 06:21:00,
2013-04-12 22:26:00,-4.9,-23.1,30.12,SSE,158,1.4,1.4,40,0.00,CLR,FEW,0.00,0.0,WeatherDisplay:10.37,2013-04-13 06:26:00,
2013-04-12 22:32:00,-5.3,-23.4,30.12,South,180,0.0,0.0,40,0.00,CLR,FEW,0.00,0.0,WeatherDisplay:10.37,2013-04-13 06:32:00,
2013-04-12 22:37:00,-5.8,-23.9,30.12,SE,135,1.6,2.3,40,0.00,CLR,FEW,0.00,0.0,WeatherDisplay:10.37,2013-04-13 06:37:00,
2013-04-12 22:42:00,-6.3,-24.4,30.12,SE,135,0.0,0.0,40,0.00,CLR,FEW,0.00,0.0,WeatherDisplay:10.37,2013-04-13 06:42:00,
2013-04-12 22:49:00,-7.1,-25.1,30.15,South,180,0.0,0.0,40,0.00,CLR,FEW,0.00,0.0,WeatherDisplay:10.37,2013-04-13 06:49:00,
2013-04-12 22:54:00,-7.8,-25.7,30.15,SW,225,1.4,3.5,40,0.00,CLR,FEW,0.00,0.0,WeatherDisplay:10.37,2013-04-13 06:54:00,
2013-04-12 22:59:00,-8.7,-26.6,30.15,SW,225,0.0,2.3,40,0.00,CLR,FEW,0.00,0.0,WeatherDisplay:10.37,2013-04-13 06:59:00,
2013-04-12 23:04:00,-9.0,-26.9,30.15,WNW,284,0.0,0.0,40,0.00,CLR,FEW,0.00,0.0,WeatherDisplay:10.37,2013-04-13 07:04:00,
2013-04-12 23:09:00,-9.6,-27.4,30.15,North,0,0.0,0.0,40,0.00,CLR,FEW,0.00,0.0,WeatherDisplay:10.37,2013-04-13 07:09:00,
2013-04-12 23:14:00,-9.9,-27.6,30.15,NNW,344,0.0,0.0,40,0.00,CLR,FEW,0.00,0.0,WeatherDisplay:10.37,2013-04-13 07:14:00,
2013-04-12 23:19:00,-10.5,-28.2,30.15,West,281,0.0,0.0,40,0.00,CLR,FEW,0.00,0.0,WeatherDisplay:10.37,2013-04-13 07:19:00,
2013-04-12 23:24:00,-10.8,-28.5,30.15,West,261,2.0,3.0,40,0.00,CLR,FEW,0.00,0.0,WeatherDisplay:10.37,2013-04-13 07:24:00,
2013-04-12 23:29:00,-11.2,-28.9,30.15,West,275,1.0,2.0,40,0.00,CLR,FEW,0.00,0.0,WeatherDisplay:10.37,2013-04-13 07:29:00,
2013-04-12 23:34:00,-11.7,-29.4,30.15,WNW,292,0.0,0.0,40,0.00,CLR,FEW,0.00,0.0,WeatherDisplay:10.37,2013-04-13 07:34:00,
2013-04-12 23:39:00,-12.5,-30.0,30.15,WNW,292,2.6,2.6,40,0.00,CLR,FEW,0.00,0.0,WeatherDisplay:10.37,2013-04-13 07:39:00,
2013-04-12 23:44:00,-12.7,-30.2,30.15,West,277,2.0,3.0,40,0.00,CLR,FEW,0.00,0.0,WeatherDisplay:10.37,2013-04-13 07:44:00,
2013-04-12 23:49:00,-13.0,-30.5,30.15,West,270,2.2,2.3,40,0.00,CLR,FEW,0.00,0.0,WeatherDisplay:10.37,2013-04-13 07:49:00,
2013-04-12 23:54:00,-13.4,-30.8,30.15,West,279,1.0,2.0,40,0.00,CLR,FEW,0.00,0.0,WeatherDisplay:10.37,2013-04-13 07:54:00,
2013-04-12 23:59:00,-13.7,-31.2,30.15,NW,320,0.0,1.0,40,0.00,CLR,FEW,0.00,0.0,WeatherDisplay:10.37,2013-04-13 07:59:00,